sat.trackr.live / text

‹ back to catalog

STARLINK-4033

NORAD 52702 · 2022-053AY

PAYLOAD ACTIVE UNKNOWN

§ Identity

Operator
Country
US
Launch date
2022-05-18
Launch site
AFETR
Launch vehicle
Mass (kg)
RCS (m²)

Purposes: comms

External: N2YO · Heavens-Above · Gunter

§ Orbital elements

Epoch: 2026-09-20T05:01:21.809280Z

Period
93.85 min
Inclination
53.1600°
Eccentricity
0.0001106
Mean motion
15.34392217 rev/d
Perigee alt
462.0 km
Apogee alt
463.5 km
Semi-major
6,840.9 km
B*
5.9634e-5
RAAN
349.0921°
Arg perigee
89.2514°
Mean anomaly
270.8615°
Rev number
24,054

§ Raw data

STARLINK-40331 52702U 22053AY  26263.20928020  .00001639  00000+0  59634-4 0  99992 52702  53.1600 349.0921 0001106  89.2514 270.8615 15.34392217240549

JSON: /api/v1/satellites/52702 · /tle

For live sub-satellite position, see the globe view (requires WebGL).

§ Visibility from observer

Set your observer location to see the next 7 days of passes ≥ 10°. The values pass through the URL so the page stays shareable.

No JS? Fill the form by hand. The geolocation button needs JavaScript.